Location: Florence
(33.9745°N, 118.2481°W)
Time: 18:52:12
(UTC+00:00)

H-2A R/B - Pass Details

Date: 23 March 2023
Orbit: 477 x 506 km, 97.4° (Epoch: 03 April)

Event Time Altitude Azimuth Distance (km) Brightness Sun altitude
Rises 13:03:19 0° 355° (N) 2,570 6.3 -11.0°
Reaches altitude 10° 13:05:42 10° 341° (NNW) 1,678 5.2 -10.6°
Maximum altitude 13:08:33 22° 288° (WNW) 1,089 3.8 -10.0°
Drops below altitude 10° 13:11:22 10° 235° (SW) 1,656 4.7 -9.4°
Enters shadow 13:11:23 10° 235° (SW) 1,658 4.7 -9.4°
